Location: Oberkirch
(48.5323°N, 8.0787°E)
Time: 16:53:49
(UTC+00:00)

SL-24 R/B - RUBIN 2 - Pass Details

Date: 17 February 2026
Orbit: 603 x 984 km, 64.6° (Epoch: 8 March)

Event Time Altitude Azimuth Distance (km) Brightness Sun altitude
Exits shadow 03:33:47 16° 6° (N) 1,637 5.9 -29.9°
Drops below altitude 10° 03:35:09 10° 20° (NNE) 2,001 6.6 -29.7°
Sets 03:37:47 0° 36° (NE) 2,883 7.7 -29.3°
